When you browse on this site, cookies collect data to enhance your experience and personalize the content and advertising you see.
Visit our Privacy Policy to learn more. By continuing to use the site, you agree to this use of cookies and data.
  • en Suisse
  • Liste des pays
  • À 7 jours
  • Température de l'eau
  • Carte satellitaire
  • Carte météo
  • Widgets météo
  • user-avatar
    Se connecter

    Météo par heure à Can Tho

    Ce jour, 16 Juillet, Mardi

    Heure Température Précipitation Vent Pression Humidité
    00:00 +28°C° 0.1 mm 2 m/s 754 mmHg 84%
    01:00 +29°C° 0 mm 2 m/s 754 mmHg 84%
    02:00 +28°C° 0.9 mm 3 m/s 754 mmHg 86%
    03:00 +28°C° 0.9 mm 3 m/s 754 mmHg 87%
    04:00 +28°C° 0.9 mm 4 m/s 754 mmHg 89%
    05:00 +28°C° 0.4 mm 3 m/s 754 mmHg 89%
    06:00 +28°C° 0.4 mm 3 m/s 754 mmHg 88%
    07:00 +29°C° 0 mm 2 m/s 754 mmHg 90%
    08:00 +30°C° 2.8 mm 3 m/s 754 mmHg 85%
    09:00 +31°C° 2.8 mm 3 m/s 754 mmHg 79%
    10:00 +33°C° 2.8 mm 3 m/s 755 mmHg 74%
    11:00 +33°C° 0.6 mm 4 m/s 754 mmHg 73%
    12:00 +33°C° 0.6 mm 4 m/s 754 mmHg 72%
    13:00 +33°C° 0 mm 4 m/s 753 mmHg 72%
    14:00 +33°C° 2.1 mm 5 m/s 753 mmHg 74%
    15:00 +32°C° 2.1 mm 5 m/s 753 mmHg 76%
    16:00 +32°C° 2.1 mm 5 m/s 753 mmHg 78%
    17:00 +30°C° 0.1 mm 5 m/s 753 mmHg 81%
    18:00 +29°C° 0.1 mm 4 m/s 753 mmHg 84%
    19:00 +28°C° 0.1 mm 4 m/s 754 mmHg 87%
    20:00 +28°C° 0 mm 4 m/s 754 mmHg 88%
    21:00 +28°C° 0 mm 3 m/s 755 mmHg 88%
    22:00 +27°C° 0 mm 3 m/s 755 mmHg 89%
    23:00 +27°C° 0.1 mm 3 m/s 755 mmHg 90%

    Demain, 17 Juillet, Mercredi

    Heure Température Précipitation Vent Pression Humidité
    00:00 +27°C° 0.1 mm 3 m/s 755 mmHg 91%
    01:00 +27°C° 0.1 mm 3 m/s 754 mmHg 92%
    02:00 +27°C° 0.2 mm 2 m/s 754 mmHg 92%
    03:00 +27°C° 0.2 mm 2 m/s 754 mmHg 92%
    04:00 +27°C° 0.2 mm 2 m/s 753 mmHg 93%
    05:00 +27°C° 0.7 mm 2 m/s 754 mmHg 92%
    06:00 +27°C° 0.7 mm 2 m/s 754 mmHg 91%
    07:00 +28°C° 0.7 mm 3 m/s 754 mmHg 90%
    08:00 +29°C° 0.4 mm 4 m/s 754 mmHg 86%
    09:00 +30°C° 0.4 mm 4 m/s 754 mmHg 81%
    10:00 +32°C° 0.4 mm 5 m/s 754 mmHg 76%
    11:00 +33°C° 0.5 mm 6 m/s 754 mmHg 74%
    12:00 +33°C° 0.5 mm 6 m/s 753 mmHg 72%
    13:00 +34°C° 0.5 mm 6 m/s 753 mmHg 70%
    14:00 +33°C° 0.3 mm 6 m/s 752 mmHg 71%
    15:00 +33°C° 0.3 mm 6 m/s 751 mmHg 73%
    16:00 +32°C° 0.3 mm 6 m/s 751 mmHg 74%
    17:00 +30°C° 0.1 mm 5 m/s 752 mmHg 77%
    18:00 +30°C° 0.1 mm 4 m/s 752 mmHg 80%
    19:00 +29°C° 0.1 mm 3 m/s 753 mmHg 82%
    20:00 +29°C° 0 mm 3 m/s 754 mmHg 83%
    21:00 +28°C° 0 mm 3 m/s 754 mmHg 84%
    22:00 +28°C° 0 mm 2 m/s 755 mmHg 85%
    23:00 +28°C° 0.1 mm 2 m/s 755 mmHg 86%

    Après-demain, 18 Juillet, Jeudi

    Heure Température Précipitation Vent Pression Humidité
    00:00 +28°C° 0.1 mm 2 m/s 754 mmHg 86%
    01:00 +28°C° 0.1 mm 2 m/s 754 mmHg 87%
    02:00 +28°C° 0.1 mm 2 m/s 754 mmHg 87%
    03:00 +27°C° 0.1 mm 2 m/s 753 mmHg 88%
    04:00 +27°C° 0.1 mm 2 m/s 753 mmHg 89%
    05:00 +27°C° 0 mm 2 m/s 753 mmHg 88%
    06:00 +28°C° 0 mm 2 m/s 753 mmHg 88%
    07:00 +28°C° 0 mm 3 m/s 754 mmHg 87%
    08:00 +28°C° 0.2 mm 3 m/s 754 mmHg 85%
    09:00 +29°C° 0.2 mm 4 m/s 754 mmHg 82%
    10:00 +30°C° 0.2 mm 5 m/s 754 mmHg 80%
    11:00 +30°C° 0.3 mm 5 m/s 754 mmHg 80%
    12:00 +29°C° 0.3 mm 6 m/s 754 mmHg 81%
    13:00 +29°C° 0.3 mm 6 m/s 753 mmHg 81%
    14:00 +29°C° 0 mm 6 m/s 753 mmHg 81%
    15:00 +29°C° 0 mm 6 m/s 752 mmHg 81%
    16:00 +29°C° 0 mm 5 m/s 752 mmHg 81%
    17:00 +29°C° 0 mm 4 m/s 753 mmHg 82%
    18:00 +28°C° 0 mm 3 m/s 753 mmHg 84%
    19:00 +28°C° 0 mm 3 m/s 754 mmHg 86%
    20:00 +27°C° 0 mm 2 m/s 754 mmHg 87%
    21:00 +27°C° 0 mm 2 m/s 755 mmHg 88%
    22:00 +27°C° 0 mm 2 m/s 755 mmHg 89%
    23:00 +27°C° 0 mm 2 m/s 755 mmHg 89%

    19 Juillet, Vendredi

    Heure Température Précipitation Vent Pression Humidité
    00:00 +27°C° 0 mm 2 m/s 754 mmHg 89%
    01:00 +27°C° 0 mm 2 m/s 754 mmHg 89%
    02:00 +27°C° 0.1 mm 2 m/s 754 mmHg 89%
    03:00 +27°C° 0.1 mm 2 m/s 753 mmHg 89%
    04:00 +27°C° 0.1 mm 2 m/s 753 mmHg 90%
    05:00 +27°C° 0.5 mm 2 m/s 754 mmHg 90%
    06:00 +27°C° 0.5 mm 2 m/s 754 mmHg 91%
    07:00 +27°C° 0.5 mm 2 m/s 755 mmHg 91%
    08:00 +27°C° 0.7 mm 3 m/s 755 mmHg 90%
    09:00 +28°C° 0.7 mm 4 m/s 755 mmHg 89%
    10:00 +28°C° 0.7 mm 5 m/s 755 mmHg 88%
    11:00 +29°C° 0.4 mm 4 m/s 755 mmHg 85%
    12:00 +29°C° 0.4 mm 4 m/s 755 mmHg 82%
    13:00 +30°C° 0.4 mm 4 m/s 754 mmHg 79%
    14:00 +30°C° 0 mm 4 m/s 754 mmHg 77%
    15:00 +32°C° 0 mm 4 m/s 753 mmHg 75%
    16:00 +32°C° 0 mm 4 m/s 753 mmHg 72%
    17:00 +30°C° 0 mm 4 m/s 753 mmHg 76%
    18:00 +29°C° 0 mm 3 m/s 753 mmHg 80%
    19:00 +28°C° 0 mm 2 m/s 754 mmHg 84%
    20:00 +28°C° 0.3 mm 2 m/s 754 mmHg 85%
    21:00 +28°C° 0.3 mm 2 m/s 755 mmHg 87%
    22:00 +27°C° 0.3 mm 2 m/s 755 mmHg 89%
    23:00 +27°C° 0 mm 2 m/s 755 mmHg 90%

    20 Juillet, Samedi

    Heure Température Précipitation Vent Pression Humidité
    00:00 +27°C° 0 mm 2 m/s 755 mmHg 91%
    01:00 +27°C° 0 mm 2 m/s 754 mmHg 92%
    02:00 +27°C° 0 mm 2 m/s 754 mmHg 92%
    03:00 +27°C° 0 mm 2 m/s 754 mmHg 92%
    04:00 +27°C° 0 mm 3 m/s 754 mmHg 92%
    05:00 +27°C° 0 mm 3 m/s 754 mmHg 90%
    06:00 +28°C° 0 mm 3 m/s 754 mmHg 89%
    07:00 +28°C° 0 mm 3 m/s 755 mmHg 88%
    08:00 +30°C° 0.6 mm 4 m/s 755 mmHg 83%
    09:00 +32°C° 0.6 mm 4 m/s 755 mmHg 78%
    10:00 +33°C° 0.6 mm 5 m/s 755 mmHg 72%
    11:00 +33°C° 2.4 mm 5 m/s 755 mmHg 74%
    12:00 +33°C° 2.4 mm 5 m/s 754 mmHg 75%
    13:00 +33°C° 2.4 mm 5 m/s 754 mmHg 77%
    14:00 +32°C° 3 mm 5 m/s 754 mmHg 79%
    15:00 +30°C° 3 mm 5 m/s 753 mmHg 81%
    16:00 +30°C° 3 mm 5 m/s 753 mmHg 84%
    17:00 +29°C° 0.8 mm 4 m/s 753 mmHg 86%
    18:00 +28°C° 0.8 mm 4 m/s 754 mmHg 89%
    19:00 +28°C° 0.8 mm 3 m/s 754 mmHg 91%
    20:00 +27°C° 0 mm 3 m/s 755 mmHg 92%
    21:00 +27°C° 0 mm 2 m/s 755 mmHg 93%
    22:00 +27°C° 0 mm 2 m/s 756 mmHg 94%
    23:00 +27°C° 0 mm 2 m/s 755 mmHg 94%

    21 Juillet, Dimanche

    Heure Température Précipitation Vent Pression Humidité
    00:00 +27°C° 0 mm 2 m/s 755 mmHg 94%
    01:00 +27°C° 0 mm 2 m/s 754 mmHg 94%
    02:00 +27°C° 0 mm 2 m/s 754 mmHg 93%
    03:00 +27°C° 0 mm 2 m/s 754 mmHg 93%
    04:00 +27°C° 0 mm 2 m/s 754 mmHg 93%
    05:00 +27°C° 0 mm 2 m/s 754 mmHg 92%
    06:00 +28°C° 0 mm 2 m/s 754 mmHg 91%
    07:00 +28°C° 0 mm 2 m/s 754 mmHg 91%
    08:00 +29°C° 0.8 mm 3 m/s 755 mmHg 86%
    09:00 +30°C° 0.8 mm 4 m/s 755 mmHg 81%
    10:00 +33°C° 0.8 mm 6 m/s 755 mmHg 76%
    11:00 +33°C° 2 mm 6 m/s 755 mmHg 76%
    12:00 +33°C° 2 mm 6 m/s 754 mmHg 76%
    13:00 +33°C° 2 mm 6 m/s 754 mmHg 76%
    14:00 +32°C° 1.5 mm 6 m/s 753 mmHg 77%
    15:00 +32°C° 1.5 mm 6 m/s 753 mmHg 78%
    16:00 +32°C° 1.5 mm 6 m/s 752 mmHg 79%
    17:00 +30°C° 0.7 mm 5 m/s 753 mmHg 82%
    18:00 +29°C° 0.7 mm 4 m/s 753 mmHg 86%
    19:00 +28°C° 0.7 mm 3 m/s 753 mmHg 89%
    20:00 +28°C° 0 mm 3 m/s 754 mmHg 89%
    21:00 +28°C° 0 mm 3 m/s 755 mmHg 89%
    22:00 +28°C° 0 mm 2 m/s 755 mmHg 90%
    23:00 +28°C° 0 mm 2 m/s 755 mmHg 91%
    Voir plus